CAPE
1 1 0 0 0 0 0 0 0 0 1 0 0 0 0 0 0 0 0 0 435 2521 2072 880 1059 1531 1599 2017 1885 935 307 229 201 236 481 292 231 146 130 192 316 394 345 737 997
0 0 0 0 0 0 0 0 0 0 0 0 0 0 0 0 0 0 0 575 2440 2658 1092 943 1499 1587 1661 1577 1269 927 152 46 131 189 326 296 250 305 254 222 601 930 1135 1012 889
0 0 0 0 0 0 0 0 0 0 0 0 0 0 0 0 0 0 518 2680 2675 2408 764 823 959 1240 1156 973 657 613 215 38 22 153 201 248 239 257 208 284 207 715 1016 1053 870
0 0 0 0 0 0 0 0 0 0 0 0 0 0 0 0 0 0 2396 2729 2691 996 650 1088 1151 1097 443 260 359 577 233 102 119 199 288 217 171 145 305 149 169 737 931 979 793
0 0 0 0 0 0 0 0 0 0 0 0 0 0 0 0 0 825 3185 2651 1616 694 758 1345 1248 749 217 282 403 489 302 304 202 211 282 209 53 15 186 65 305 862 1072 1042 916
0 0 1 0 0 1 1 1 1 1 0 0 0 0 0 0 0 376 1577 1590 639 643 762 1080 283 200 181 322 357 305 318 270 187 240 242 193 59 3 222 232 611 887 1048 1103 1124
0 0 2 1 1 1 1 1 1 0 0 0 0 0 0 0 0 223 1048 1198 703 856 935 921 322 344 326 234 269 314 365 362 314 300 281 176 206 65 140 352 609 759 952 1053 1254
1 1 2 2 2 1 1 2 0 0 0 0 0 0 0 0 66 283 652 936 1060 862 743 401 520 471 394 270 146 231 347 473 402 316 204 156 229 188 226 504 658 803 1013 1081 1260
4 2 3 3 3 3 2 0 0 0 0 0 0 0 0 0 0 299 467 612 1270 942 711 186 361 702 419 429 320 220 293 286 409 276 187 223 403 313 312 500 639 913 1143 1155 1292
6 6 6 6 4 2 0 0 0 0 0 0 0 0 0 0 0 138 369 337 397 494 243 486 391 457 298 40 252 247 171 184 258 486 349 351 428 416 427 366 549 755 986 1140 1222
4 5 7 5 3 2 0 0 0 0 0 0 0 0 0 0 0 0 365 132 206 120 0 136 527 578 174 315 173 80 50 271 320 631 461 304 453 375 538 495 479 609 732 1030 1129
5 6 6 4 2 0 0 0 0 0 0 0 0 0 0 0 0 0 42 0 18 0 0 149 185 312 312 285 255 290 246 380 394 174 489 425 103 257 504 650 531 628 711 864 1115
6 6 5 2 0 0 0 0 0 0 0 0 0 0 0 0 0 0 0 0 0 0 3 75 144 386 330 280 305 299 302 320 387 292 348 487 532 407 315 492 626 603 742 632 686
7 8 0 1 0 0 0 0 0 0 0 0 0 0 0 0 0 0 0 14 26 18 13 45 220 336 234 219 246 340 229 211 510 413 570 460 379 350 432 594 663 718 773 653 860
6 6 1 0 0 0 0 0 0 0 0 0 0 0 0 0 0 0 0 2 63 109 77 96 57 126 148 190 280 528 207 315 455 571 582 560 594 408 251 388 576 702 670 619 775
3 3 1 0 0 0 0 0 0 0 0 0 0 0 0 0 0 0 0 0 0 47 123 99 37 99 278 458 372 459 427 578 587 624 698 416 306 354 476 295 431 485 749 689 666
0 1 1 0 0 0 0 0 0 0 0 0 0 0 0 0 0 0 0 0 0 4 59 33 35 365 514 606 600 500 198 161 401 732 573 305 354 419 243 244 388 367 554 722 877
0 0 0 0 0 0 0 0 0 0 0 0 0 0 0 0 0 0 0 0 0 0 0 16 17 324 463 377 336 213 229 169 99 527 304 533 426 430 154 181 262 178 333 673 963
0 0 0 0 0 0 0 0 0 0 0 0 0 0 0 0 0 0 0 0 0 0 0 0 0 61 254 257 151 397 227 305 67 200 494 452 402 337 105 198 253 142 231 662 961
0 0 0 0 0 0 0 0 0 0 0 0 0 0 0 0 0 0 0 0 0 0 0 0 0 0 99 392 284 174 230 242 279 344 538 480 386 199 88 257 354 227 372 622 996
0 0 0 0 0 0 0 0 0 0 0 0 0 0 0 0 0 0 0 0 0 0 0 0 0 0 19 187 72 233 141 122 106 336 401 525 234 160 166 284 379 353 370 729 1066
0 0 0 0 0 0 0 0 0 0 0 0 0 0 0 0 0 0 0 0 0 0 0 0 0 0 85 0 0 0 55 263 328 481 323 217 382 119 158 204 359 216 423 795 1101
0 0 0 0 0 0 0 0 0 0 0 0 0 0 0 0 0 0 0 0 0 0 0 0 0 0 0 100 109 91 202 314 205 370 288 391 230 323 218 317 326 236 621 932 1124
0 0 0 0 0 0 0 0 0 0 0 0 0 0 0 0 0 0 0 0 0 0 0 0 0 0 0 0 12 84 228 447 288 208 326 317 219 320 218 226 261 415 755 900 1086
0 0 0 0 0 0 0 0 0 0 0 0 0 0 0 0 0 0 0 0 0 0 0 0 0 0 0 0 0 1 161 287 233 105 54 73 47 73 249 172 267 429 841 860 909
0 0 0 0 0 0 0 0 0 0 0 0 0 0 0 0 0 0 0 0 0 0 0 0 0 0 0 0 0 0 0 0 3 58 21 3 0 1 121 257 167 285 790 792 639
0 0 0 0 0 0 0 0 0 0 0 0 0 0 0 0 0 0 0 0 0 0 0 0 0 0 0 0 0 0 0 0 0 0 83 45 5 1 115 305 143 198 571 702 385
CIN
0 0 0 0 0 0 0 0 0 0 0 0 0 0 0 0 0 0 0 0 -262 -220 -204 -161 -144 -80 -87 -24 -42 -44 0 0 -5 -2 -1 -13 -23 -57 -59 -27 -18 -3 -5 -9 -10
0 0 0 0 0 0 0 0 0 0 0 0 0 0 0 0 0 0 0 -506 -320 -227 -141 -113 -63 -66 -18 -16 -21 -3 0 -9 -25 -7 -4 -9 -16 -22 -20 -35 -1 -7 -5 -15 -23
0 0 0 0 0 0 0 0 0 0 0 0 0 0 0 0 0 0 -522 -302 -271 -240 -125 -99 -70 -44 -14 -14 -12 -6 0 -1 -3 -12 -17 -11 -17 -35 -41 -16 -49 0 -6 -4 -4
0 0 0 0 0 0 0 0 0 0 0 0 0 0 0 0 0 0 -341 -290 -249 -156 -129 -92 -54 -28 -13 -21 -10 -1 -8 0 -1 -10 0 -11 -42 -59 -16 -74 -41 0 0 0 0
0 0 0 0 0 0 0 0 0 0 0 0 0 0 0 0 0 -363 -221 -258 -225 -122 -78 -38 -18 -22 -13 -18 -14 -7 -4 -1 -6 -2 -3 -7 -50 -98 -25 -87 -5 -2 -4 0 0
0 0 0 0 0 0 0 0 0 0 0 0 0 0 0 0 0 -161 -221 -235 -107 -81 -47 -42 -38 -51 -40 -41 -17 -15 -7 -6 -6 -8 -8 -1 -24 -29 -6 -9 -5 -7 0 0 0
0 0 0 0 0 0 0 0 0 0 0 0 0 0 0 0 0 -238 -189 -130 -89 -46 -27 -54 -102 -56 -22 -20 -37 -8 -7 -7 -3 -8 -9 -8 -7 -20 -13 -9 -6 -5 0 0 0
0 0 0 0 0 0 0 0 0 0 0 0 0 0 0 0 -372 -219 -141 -82 -86 -58 -59 -87 -62 -31 -28 -24 -26 -5 0 0 -9 -17 -26 -11 0 -4 -10 -10 -5 -4 -8 -9 -4
0 0 0 0 0 0 0 0 0 0 0 0 0 0 0 0 0 -159 -98 -70 -65 -64 -79 -127 -59 -9 -18 0 0 -6 0 0 -6 -13 -24 -7 0 -1 -11 -9 -3 -1 -5 -7 -6
0 0 0 0 0 0 0 0 0 0 0 0 0 0 0 0 0 -127 -99 -73 -60 -48 -69 -40 -14 -9 -2 -64 0 0 0 -18 -2 -5 -7 0 0 0 -10 -7 -1 0 0 -2 0
0 0 0 0 0 0 0 0 0 0 0 0 0 0 0 0 0 -1 -95 -93 -59 -52 0 -19 0 0 -19 0 -3 -13 -18 0 -8 -15 -3 0 0 -7 0 -3 -3 0 0 -2 -2
0 0 0 0 0 0 0 0 0 0 0 0 0 0 0 0 0 0 -114 0 -135 0 0 -7 -1 -3 -4 -16 0 0 -1 -7 -56 -130 -22 -29 -32 -6 0 -2 0 0 -8 -33 -6
0 0 0 0 0 0 0 0 0 0 0 0 0 0 0 0 0 0 0 0 0 0 -20 -6 -13 -1 0 0 0 0 0 0 -1 -38 -9 0 -2 -2 -3 -8 -10 0 -3 -73 -42
0 0 0 0 0 0 0 0 0 0 0 0 0 0 0 0 0 0 0 -106 -96 -80 -19 -18 -5 -2 0 0 0 0 -15 -19 -19 -5 0 0 0 0 0 0 -5 -1 -8 -19 -28
0 0 0 0 0 0 0 0 0 0 0 0 0 0 0 0 0 0 0 -143 -98 -17 -11 0 -11 -2 0 -1 -1 -2 -19 -13 -8 0 0 0 0 -2 -2 0 0 -5 -4 -7 -6
0 0 0 0 0 0 0 0 0 0 0 0 0 0 0 0 0 0 0 0 0 -59 -10 -2 -35 -9 -1 -8 -12 -33 -17 -18 -15 0 0 -4 -1 0 0 -2 0 -1 -4 -7 -6
0 0 0 0 0 0 0 0 0 0 0 0 0 0 0 0 0 0 0 0 0 -121 -54 -27 -34 -2 -7 -5 -24 -11 0 0 0 0 0 -17 -9 -2 -4 -22 0 0 -4 -3 -4
0 0 0 0 0 0 0 0 0 0 0 0 0 0 0 0 0 0 0 0 0 0 0 -31 -17 -5 -8 0 0 -2 0 -2 0 0 0 -11 0 0 -17 -27 -15 0 0 0 0
0 0 0 0 0 0 0 0 0 0 0 0 0 0 0 0 0 0 0 0 0 0 0 0 0 -11 -2 -1 -3 0 -2 -1 0 0 0 0 0 -9 -25 -27 -20 -7 0 -2 -6
0 0 0 0 0 0 0 0 0 0 0 0 0 0 0 0 0 0 0 0 0 0 0 0 0 0 -18 -16 -34 -7 -5 0 0 0 0 0 0 0 -28 -16 -12 -10 -2 -3 -9
0 0 0 0 0 0 0 0 0 0 0 0 0 0 0 0 0 0 0 0 0 0 0 0 0 0 -17 -29 -18 -14 -13 -11 0 0 0 0 -1 -16 -50 -35 -14 -5 -5 -7 -13
0 0 0 0 0 0 0 0 0 0 0 0 0 0 0 0 0 0 0 0 0 0 0 0 0 0 -64 0 0 0 0 0 0 0 0 -9 0 -12 -77 -47 -12 -28 -1 -3 -16
0 0 0 0 0 0 0 0 0 0 0 0 0 0 0 0 0 0 0 0 0 0 0 0 0 0 0 -50 -68 -26 -4 0 0 0 0 0 0 -12 -25 -26 -9 -28 -3 -15 -15
0 0 0 0 0 0 0 0 0 0 0 0 0 0 0 0 0 0 0 0 0 0 0 0 0 0 0 0 -10 -39 -17 -3 0 0 0 0 0 0 -11 -11 -11 -9 -8 -19 -27
0 0 0 0 0 0 0 0 0 0 0 0 0 0 0 0 0 0 0 0 0 0 0 0 0 0 0 0 0 0 -13 -5 0 -4 0 -1 -1 -1 0 -5 -5 -6 -10 -21 -29
0 0 0 0 0 0 0 0 0 0 0 0 0 0 0 0 0 0 0 0 0 0 0 0 0 0 0 0 0 0 0 0 0 -16 -35 -14 0 -1 -17 -17 -12 -18 -11 -10 -27
0 0 0 0 0 0 0 0 0 0 0 0 0 0 0 0 0 0 0 0 0 0 0 0 0 0 0 0 0 0 0 0 0 0 -23 -17 -12 -34 -13 -22 -24 -13 -13 -16 -57
Wind_Speed
16 16 15 15 15 16 15 16 15 15 13 13 14 13 12 11 11 7 9 3 11 20 15 15 11 9 9 4 4 2 2 7 7 6 9 10 11 6 3 7 7 6 14 15 12
17 17 17 16 16 16 16 15 16 14 15 14 14 13 11 10 9 11 8 15 28 21 19 17 13 11 5 3 3 6 2 4 2 8 9 11 9 8 9 10 13 14 14 13 12
18 17 17 18 17 17 16 16 16 15 14 14 14 12 11 12 8 4 13 20 25 20 14 10 8 10 6 5 4 3 5 3 6 3 6 11 7 6 9 9 12 14 13 13 12
18 18 19 19 19 18 17 16 16 17 14 14 13 12 11 6 7 6 15 25 22 18 15 11 11 9 5 1 2 4 2 1 5 5 7 9 8 8 5 9 10 14 12 11 10
18 18 19 19 19 19 19 17 16 16 15 14 12 10 7 9 1 10 17 21 20 16 17 12 10 5 4 2 5 4 1 6 7 9 7 8 6 9 7 8 12 13 11 11 9
17 18 19 20 20 19 19 19 18 17 16 12 10 9 7 11 4 12 19 22 16 16 14 9 1 2 6 2 4 1 5 11 10 9 8 5 8 8 11 10 13 12 11 10 8
19 19 19 20 21 21 19 20 20 17 15 11 8 6 8 2 2 10 19 19 15 12 11 8 9 5 1 1 2 9 10 9 8 8 7 3 8 4 14 13 13 13 10 9 8
20 21 21 22 21 22 20 20 20 15 10 7 7 7 5 3 2 13 17 16 13 9 1 5 6 4 3 6 7 5 8 8 9 10 5 9 10 9 12 14 14 14 12 10 9
19 20 21 21 21 20 20 19 17 5 5 9 8 7 5 4 9 13 14 15 16 11 4 3 6 3 7 12 11 10 2 5 10 11 8 11 2 10 13 14 13 12 12 11 10
19 19 20 20 19 19 20 17 1 5 7 5 3 7 7 7 9 13 14 13 15 13 9 10 8 4 6 5 4 5 3 4 9 11 12 11 11 5 13 14 12 11 11 11 11
20 20 20 20 19 17 15 6 7 8 9 5 3 2 7 7 8 14 16 15 12 13 13 14 10 13 17 6 4 8 7 6 9 9 6 9 13 7 9 14 13 12 12 11 11
21 21 20 20 18 17 7 6 6 7 5 12 8 4 3 1 10 14 19 15 16 16 16 8 14 6 8 10 10 9 7 4 1 4 11 9 15 18 15 15 14 15 11 8 11
21 20 19 20 21 6 5 2 4 3 8 8 7 10 9 10 12 20 23 18 18 19 16 16 3 12 10 9 10 7 4 0 10 9 13 9 17 22 20 15 17 15 15 14 15
21 20 20 22 7 1 4 3 6 5 7 12 10 8 10 8 10 18 23 16 12 18 18 17 11 10 9 8 7 8 1 4 5 8 8 16 12 10 16 19 18 17 16 20 14
21 19 17 8 8 6 6 4 2 6 8 9 8 6 11 14 17 14 21 15 17 16 11 14 11 15 14 13 6 5 2 5 6 11 8 12 9 3 7 15 20 19 18 18 18
22 19 14 6 5 5 4 2 6 8 4 8 8 11 15 15 8 15 20 13 11 19 16 16 3 8 4 3 5 7 6 6 6 9 9 1 7 8 9 12 16 18 19 18 19
23 19 6 2 3 1 5 6 8 9 3 8 8 11 17 15 12 19 23 22 16 17 18 16 14 5 9 10 8 9 11 6 5 5 3 4 7 9 1 5 10 18 20 19 18
25 14 8 4 2 5 7 8 8 3 2 4 3 8 15 17 14 14 21 22 24 20 15 15 15 14 13 13 8 11 10 7 8 6 9 9 5 7 5 2 8 16 20 19 20
24 5 4 2 4 5 8 9 3 2 1 3 6 11 12 14 7 13 16 22 23 20 19 14 18 12 8 5 9 9 9 4 12 13 9 1 4 8 3 10 10 13 15 17 18
5 3 4 3 4 7 9 8 2 2 4 5 9 9 15 18 15 14 16 10 21 23 21 13 10 16 11 7 5 12 4 8 6 5 6 3 4 7 5 7 13 16 15 16 17
5 5 5 4 5 7 9 4 3 2 4 4 4 7 8 15 18 18 14 5 8 15 18 19 13 9 12 14 14 8 11 10 10 8 7 8 5 7 3 6 14 16 16 17 19
5 5 4 4 7 3 8 3 1 4 1 3 4 5 8 9 13 14 15 8 4 9 20 19 12 14 16 15 13 21 15 14 10 8 5 6 6 8 3 9 13 17 15 16 18
5 3 3 5 7 9 4 5 2 5 1 2 3 3 2 6 6 7 6 5 4 11 11 18 12 13 17 13 7 13 12 13 13 4 9 8 1 8 6 10 13 15 13 15 17
5 4 5 4 3 8 6 7 8 3 1 2 2 4 6 7 2 8 10 6 3 2 5 4 19 18 14 15 15 18 16 17 15 10 8 8 12 2 6 12 14 13 14 16 18
2 4 4 2 6 6 5 2 9 7 2 2 4 4 5 7 6 7 4 9 6 4 5 10 18 18 17 16 13 9 18 17 16 17 15 10 7 3 1 9 16 16 16 17 18
6 5 1 2 3 6 6 9 8 5 4 7 6 2 3 3 6 8 4 4 3 4 6 7 9 4 14 17 17 18 19 20 18 19 16 16 14 11 4 7 17 17 17 19 20
3 1 5 4 4 6 3 2 4 2 3 2 2 4 5 6 5 5 5 3 1 2 4 6 6 9 13 13 14 21 19 20 20 16 16 14 15 2 5 11 15 19 19 20 21
Wind_Direction
351 348 347 346 343 339 339 336 335 334 335 330 327 328 325 325 301 215 237 114 165 162 152 155 182 172 198 221 237 246 179 89 99 92 131 147 134 130 108 125 80 65 72 98 138
347 345 342 341 339 336 334 334 329 331 329 328 324 323 321 324 263 244 133 139 142 164 171 172 174 176 211 204 208 264 57 77 18 73 138 159 140 128 144 123 117 105 103 119 133
342 340 338 336 336 333 331 330 327 326 326 324 320 320 315 305 259 128 140 150 153 176 167 185 179 201 239 212 160 148 64 100 121 123 145 146 138 140 133 141 146 132 134 139 140
340 336 334 332 331 330 327 326 325 321 323 318 315 315 310 244 211 70 149 149 161 182 160 183 185 214 254 316 168 208 124 43 109 160 152 130 124 154 68 81 135 131 134 138 142
335 332 329 328 327 327 325 323 321 317 314 309 307 311 269 217 95 115 144 153 173 175 186 179 200 231 300 226 210 222 112 126 130 141 142 125 130 118 114 126 133 137 151 150 140
332 330 328 326 324 326 324 319 317 311 303 298 296 298 244 227 86 140 157 167 177 184 195 198 337 333 286 320 230 194 161 128 144 144 140 154 127 173 128 145 149 163 167 163 153
333 331 327 326 324 324 323 317 313 306 293 280 269 261 244 39 359 161 165 177 178 193 190 189 268 283 50 122 49 147 142 137 148 151 147 179 163 160 147 166 166 180 179 169 171
331 329 327 326 324 321 319 315 310 301 277 236 217 233 258 77 141 165 173 173 184 202 275 286 216 251 268 121 168 194 177 168 155 168 151 228 125 138 166 182 179 184 182 185 180
327 326 326 324 321 318 316 314 304 316 140 165 204 245 171 133 187 173 186 176 175 195 209 195 240 288 173 219 179 199 249 250 170 191 155 223 70 155 179 192 189 187 185 189 184
325 324 324 321 319 318 315 301 189 190 175 209 279 223 174 189 152 174 191 174 174 184 197 213 222 161 226 212 221 122 222 213 255 194 216 215 247 180 189 199 207 200 189 195 188
326 326 324 319 318 319 309 202 203 178 207 266 141 37 139 118 162 181 182 180 191 200 207 196 214 206 202 204 180 180 266 315 213 73 263 257 282 308 236 218 212 215 196 193 201
325 325 324 319 318 314 256 260 28 358 265 218 231 251 199 266 165 182 179 184 192 201 209 180 231 155 122 203 210 231 247 118 274 137 234 193 247 259 239 240 229 198 175 213 189
324 324 324 322 319 263 271 21 356 291 253 156 190 218 191 202 200 170 192 205 195 209 196 225 226 148 196 191 234 221 272 109 259 191 228 243 244 255 239 223 241 227 187 195 198
323 323 328 324 290 28 206 116 299 244 257 144 187 181 181 214 207 175 199 195 209 210 209 232 127 182 199 228 221 256 60 260 190 213 243 196 274 232 218 212 211 216 197 192 183
324 323 323 314 327 229 69 318 228 225 232 131 141 108 158 197 125 183 198 213 216 215 190 205 205 220 240 250 216 38 176 230 216 238 286 208 252 264 194 210 205 208 200 197 180
324 322 318 193 218 289 294 268 221 227 206 140 134 174 172 198 184 140 184 230 248 223 210 245 155 246 292 84 214 132 167 188 212 263 239 35 275 291 176 224 204 200 198 197 183
324 321 242 256 73 318 277 210 214 251 137 151 166 179 193 180 172 169 182 197 195 204 209 211 209 143 178 127 159 207 218 249 206 204 241 162 267 275 252 186 208 182 185 184 174
324 316 180 279 288 302 221 216 242 46 209 120 177 178 199 180 193 192 189 200 211 211 217 212 185 195 184 230 202 217 299 298 311 287 326 145 253 71 72 184 173 171 183 178 172
312 179 198 117 224 237 231 218 315 166 21 214 170 187 190 189 220 195 208 210 204 215 225 208 228 154 190 181 242 145 228 315 283 240 252 124 247 219 185 195 177 182 184 174 180
302 231 87 86 164 234 232 252 184 323 321 221 228 219 190 191 201 204 187 214 208 204 234 227 244 185 157 183 200 264 50 218 211 282 295 237 233 27 8 167 174 182 185 174 174
241 220 87 202 248 219 229 211 201 143 327 263 222 198 235 181 204 198 189 130 211 193 221 234 211 181 175 215 223 174 219 233 288 284 310 290 69 43 330 199 172 173 170 163 169
292 221 84 219 218 229 231 211 8 194 235 237 269 297 224 201 204 206 217 191 186 213 204 220 225 225 202 234 242 251 232 230 242 180 238 315 295 46 12 174 172 169 164 164 167
322 332 123 249 236 208 148 189 254 222 186 264 212 297 228 192 191 210 173 105 188 202 215 205 221 238 210 166 199 227 219 251 248 308 277 289 50 55 109 140 162 153 156 159 166
283 224 158 207 316 288 207 202 187 150 164 288 284 240 201 183 251 170 159 147 131 222 3 290 230 226 235 226 199 206 215 213 235 239 240 228 306 189 118 159 157 154 158 164 169
344 68 6 181 187 248 250 7 212 193 198 233 197 261 246 195 173 158 168 151 162 130 203 232 236 242 244 258 245 221 220 206 228 251 269 276 296 298 334 176 170 162 161 164 176
329 325 210 296 251 238 168 211 234 155 271 180 256 186 243 262 355 149 176 239 111 159 190 200 242 253 247 243 245 248 235 246 225 240 259 262 278 280 300 204 175 167 171 174 181
41 213 285 126 235 243 220 227 204 222 133 4 316 250 174 73 1 359 335 317 325 285 183 240 234 216 237 217 238 233 237 245 240 226 240 238 248 291 215 202 217 179 180 185 185